CW1707 Weather Reports


time (UTC)temp
F
wind
direction
speed
knots
gust
knots
rain 1hr
in
rain 24hr
in
rain mn
in
humidity
%
barometer
mb
20260505070704 56 2 1.7 6.1 0.00 0.00 0.00 46 1005.8
20260505064704 56 353 2.6 8.7 0.00 0.00 0.00 46 1005.0
20260505064205 56 341 1.7 10.4 0.00 0.00 0.00 46 1004.8
20260505063205 57 346 2.6 7.0 0.00 0.00 0.00 45 1004.5
20260505061204 57 351 2.6 10.4 0.00 0.00 0.00 44 1004.6
20260505060704 57 341 3.5 10.4 0.00 0.00 0.00 43 1004.6
20260505060205 58 9 4.3 14.8 0.00 0.00 0.00 42 1004.4
20260505053704 59 347 4.3 10.4 0.00 0.00 0.00 43 1004.4
20260505053205 60 348 4.3 13.9 0.00 0.00 0.00 44 1004.2
20260505051704 61 338 5.2 12.2 0.00 0.00 0.00 43 1003.7
20260505051204 62 330 4.3 13.9 0.00 0.00 0.00 42 1003.5
20260505050704 62 0 4.3 12.2 0.00 0.00 0.00 42 1003.1
20260505050204 62 345 6.1 13.9 0.00 0.00 0.00 41 1002.6
20260505041204 66 350 4.3 11.3 0.00 0.00 0.00 42 1001.6
20260505040704 66 337 2.6 10.4 0.00 0.00 0.00 42 1001.7
20260505040204 66 340 3.5 11.3 0.00 0.00 0.00 41 1001.7
20260505034204 67 343 2.6 7.8 0.00 0.00 0.00 40 1001.4
20260505033704 67 5 2.6 8.7 0.00 0.00 0.00 40 1001.4
20260505033204 68 6 2.6 8.7 0.00 0.00 0.00 40 1001.2
20260505031204 69 354 4.3 11.3 0.00 0.00 0.00 40 1000.9
20260505030704 69 338 2.6 7.8 0.00 0.00 0.00 42 1000.9
20260505030204 69 345 2.6 8.7 0.00 0.00 0.00 44 1000.7
20260505024704 69 335 2.6 7.8 0.00 0.00 0.00 54 1000.6
20260505024204 68 344 5.2 8.7 0.00 0.00 0.00 57 1000.5
20260505023704 68 346 4.3 10.4 0.00 0.00 0.00 60 1000.3
20260505023204 67 184 0.0 0.0 0.00 0.00 0.00 60 999.8
20260505021704 68 184 0.0 0.0 0.00 0.00 0.00 59 999.5
20260505014704 70 184 0.0 0.0 0.00 0.00 0.00 57 999.0
20260505013704 71 184 0.0 0.0 0.00 0.00 0.00 55 998.9
20260505011703 73 184 0.0 0.0 0.00 0.00 0.00 52 998.7
20260505011205 73 184 0.0 0.0 0.00 0.00 0.00 52 998.7
20260505010204 74 184 0.0 0.9 0.00 0.00 0.00 51 998.6
20260505004703 76 184 0.9 2.6 0.00 0.00 0.00 51 998.4
20260505004203 76 185 0.9 2.6 0.00 0.00 0.00 51 998.3
20260505001211 77 184 0.9 2.6 0.00 0.00 0.00 48 998.3
20260505000704 77 181 1.7 4.3 0.00 0.00 0.00 48 998.1
20260505000204 78 169 1.7 5.2 0.00 0.00 0.00 47 998.1
20260504234704 79 172 1.7 6.1 0.00 0.00 0.00 46 998.1
20260504234204 79 175 2.6 6.1 0.00 0.00 0.00 45 998.1
20260504233704 79 191 2.6 6.1 0.00 0.00 0.00 44 998.1
20260504233204 79 194 1.7 7.8 0.00 0.00 0.00 44 998.1
20260504231704 80 192 2.6 8.7 0.00 0.00 0.00 42 998.0
20260504230704 81 185 2.6 6.1 0.00 0.00 0.00 41 998.0
20260504224704 81 191 2.6 6.1 0.00 0.00 0.00 41 998.0
20260504224203 81 183 2.6 6.1 0.00 0.00 0.00 42 998.0
20260504223704 82 209 0.9 2.6 0.00 0.00 0.00 44 998.1
20260504223203 82 184 1.7 7.0 0.00 0.00 0.00 42 998.0
20260504221204 82 214 2.6 7.8 0.00 0.00 0.00 41 998.0
20260504220703 82 202 3.5 10.4 0.00 0.00 0.00 39 998.0
20260504220204 83 180 4.3 10.4 0.00 0.00 0.00 39 998.0
20260504214703 84 182 4.3 7.8 0.00 0.00 0.00 38 998.2
20260504081705 57 70 0.0 0.0 0.00 0.00 0.00 51 1003.0
20260504081204 57 70 0.0 0.0 0.00 0.00 0.00 52 1003.0
20260504080704 58 70 0.0 0.0 0.00 0.00 0.00 53 1003.0
20260504080205 58 70 0.0 0.0 0.00 0.00 0.00 54 1003.0